Theta_e
289 291 290 290 288 288 288 289 289 290 289 289 291 293 294 294 293 293 293 293 293 293 291 289 288 286 285 285 285 285 285 286 287 289 292 293 296 301 312 324 327 329 331 332
290 288 287 288 288 288 288 289 290 290 289 290 291 292 294 294 293 292 292 292 292 291 291 290 288 287 285 284 284 284 284 284 285 287 288 290 293 296 298 307 320 327 329 330
290 287 287 287 288 289 289 288 288 288 289 291 291 293 295 295 294 293 292 292 291 290 290 290 288 287 286 284 283 283 283 283 284 285 287 290 292 296 299 305 316 326 327 328
287 286 287 287 287 288 290 287 288 289 291 295 292 296 294 295 294 293 292 291 291 290 289 288 288 287 286 285 284 283 282 283 283 284 285 287 289 292 295 297 300 308 323 327
286 286 286 287 286 287 289 288 289 290 291 292 293 293 295 294 294 292 291 291 290 290 289 288 287 287 286 285 284 283 282 282 282 282 283 284 287 289 291 294 299 303 311 326
287 286 286 286 287 286 287 289 290 291 292 296 292 290 295 295 293 291 290 290 290 289 289 288 287 286 286 285 285 283 282 282 282 282 282 282 284 286 289 291 295 302 309 323
287 287 286 286 287 287 288 289 297 298 299 298 290 290 295 294 292 290 289 289 289 289 288 288 287 286 285 285 284 284 282 282 281 281 281 281 282 284 286 289 292 295 303 319
291 294 286 286 286 287 287 288 295 297 294 292 289 291 297 293 291 289 289 289 289 289 288 287 286 285 285 284 283 283 282 282 281 281 281 281 281 282 283 286 289 292 296 308
290 288 285 286 286 287 286 289 286 289 286 287 292 292 292 292 291 290 290 289 289 288 288 287 286 285 284 283 283 282 282 282 282 281 281 281 280 281 282 283 286 288 292 299
284 291 285 286 285 286 286 287 287 287 292 294 291 290 293 293 293 289 289 289 288 288 288 287 286 285 284 283 282 282 281 281 281 281 281 281 281 280 281 282 283 285 288 293
284 286 287 285 286 286 285 286 286 286 287 290 290 294 293 292 291 289 288 289 288 288 287 287 286 285 283 282 281 281 280 280 280 280 280 281 281 281 281 281 282 283 285 289
285 286 288 287 284 283 285 286 287 289 288 286 287 289 288 289 289 288 288 288 288 288 287 286 285 284 283 282 280 279 279 278 278 278 280 280 280 280 280 281 281 281 283 285
286 287 292 287 284 283 284 285 285 284 284 286 289 292 287 287 288 288 287 287 288 287 288 287 286 285 283 282 280 279 278 277 277 277 277 278 279 279 280 280 280 281 282 283
286 284 288 296 290 285 285 285 285 286 287 287 286 290 290 289 289 288 287 286 286 287 287 287 287 286 284 282 280 278 278 277 276 276 276 276 276 277 278 279 280 280 281 282
287 287 282 284 285 285 285 285 285 286 286 286 290 289 291 290 289 287 287 286 286 287 287 287 286 286 284 282 280 278 277 276 275 275 275 275 275 275 276 277 278 280 280 281
282 286 278 281 284 284 284 285 285 285 286 286 287 287 288 288 287 286 287 286 286 287 287 286 286 285 284 283 280 278 276 276 275 275 275 274 274 274 275 275 275 276 278 279
284 285 283 287 281 282 285 283 285 285 284 285 286 288 288 287 287 287 286 286 286 286 287 286 286 285 284 282 279 277 275 275 274 274 274 273 273 273 273 274 274 275 274 276
281 283 285 286 281 290 290 284 284 285 286 285 286 286 286 286 287 286 285 286 286 286 286 286 286 285 284 282 278 276 275 275 274 273 273 272 272 272 272 273 273 273 273 273
285 285 285 285 283 285 289 283 281 282 286 286 286 286 286 286 284 285 286 285 286 286 286 285 284 283 283 280 278 276 275 274 273 272 271 270 270 270 271 271 271 271 272 272
285 285 285 275 283 289 288 282 282 282 287 289 286 286 286 284 286 287 287 286 285 285 284 284 283 282 281 280 277 275 275 273 272 271 270 269 268 268 269 270 270 270 270 271
283 284 285 284 284 283 283 282 281 286 291 284 284 286 286 285 287 286 285 284 283 283 283 283 282 282 281 278 275 275 274 272 271 270 269 268 267 267 268 269 268 269 269 270
283 284 283 284 283 283 283 281 284 290 284 284 283 284 284 284 285 284 284 284 283 283 283 282 282 281 280 276 274 274 273 271 270 269 268 267 267 266 267 267 267 267 268 268
284 286 285 285 285 285 282 285 285 283 284 285 284 284 284 284 283 283 283 283 283 282 281 280 280 280 277 275 273 272 271 270 269 267 266 266 265 265 265 265 266 266 267 268
281 281 283 281 285 283 283 282 282 283 283 284 284 283 283 283 283 283 282 283 282 281 280 279 278 277 273 272 271 270 269 268 266 265 265 264 264 264 264 265 265 265 266 267
285 282 284 286 286 286 286 286 286 286 285 285 284 284 283 283 283 282 282 281 280 280 277 275 275 274 272 270 269 269 267 266 264 263 263 263 264 263 263 264 264 264 265 266
284 286 286 287 288 288 288 287 286 285 285 285 285 284 284 282 283 282 281 280 278 276 273 272 271 270 269 268 266 265 264 263 262 262 263 263 262 263 263 263 263 263 264 265
Wind_Speed
10 12 12 11 10 5 1 2 7 4 1 12 4 1 1 9 14 17 17 18 21 22 23 27 30 30 32 31 32 30 32 31 31 29 29 29 26 25 26 27 31 35 34 37
7 11 6 3 7 3 1 3 7 5 3 7 4 6 4 1 8 11 14 16 18 22 24 29 32 33 32 32 33 34 32 30 29 26 28 25 29 27 33 37 29 33 35 37
11 4 4 4 8 7 3 6 7 5 11 1 10 3 8 4 2 12 15 14 14 16 20 23 31 33 33 34 34 33 32 30 28 28 27 26 26 25 26 24 27 31 35 37
8 3 5 5 5 8 3 7 10 8 6 2 6 3 8 5 5 11 15 15 15 18 18 22 27 30 31 34 33 32 31 31 28 28 28 28 26 27 28 32 35 39 34 36
2 2 5 4 4 6 3 14 7 3 3 3 1 3 4 3 5 11 14 14 15 15 16 17 24 26 27 30 33 33 32 30 29 28 26 28 28 28 30 31 34 35 37 37
5 1 1 4 8 5 12 2 3 3 2 3 4 4 4 3 2 6 11 13 15 15 15 19 22 24 26 29 31 33 35 33 30 29 28 27 30 34 31 31 31 31 32 34
1 1 1 3 3 3 9 1 1 2 2 3 5 6 7 7 6 3 8 11 13 13 14 15 20 23 26 28 30 31 34 35 33 31 30 29 30 33 31 30 29 32 31 32
1 3 2 3 3 2 6 4 3 4 3 4 3 6 3 8 6 2 4 6 9 12 12 14 18 20 22 25 27 29 31 33 36 33 31 30 30 31 31 31 31 29 30 33
2 3 1 0 2 2 2 3 2 2 2 3 4 5 10 9 9 5 4 8 9 11 11 13 16 18 19 21 24 26 28 29 32 33 32 31 32 33 34 36 33 30 31 28
4 1 2 3 2 4 2 6 1 2 2 5 4 8 9 11 12 7 5 6 7 8 10 10 13 15 16 17 18 21 24 26 28 31 32 32 32 34 35 35 36 36 35 31
3 1 3 1 6 6 4 3 2 1 2 3 5 6 5 10 10 8 5 5 6 7 8 9 12 12 12 14 16 18 21 25 28 29 31 32 34 35 35 36 37 37 37 36
2 1 3 1 3 2 0 3 5 3 4 4 3 10 3 8 8 9 7 9 7 8 8 8 10 11 13 14 15 17 19 20 22 25 27 29 31 34 35 37 40 39 37 38
6 2 3 2 2 1 5 8 7 2 1 10 4 7 1 8 10 12 12 15 12 12 10 9 9 10 11 12 13 15 16 19 20 22 24 27 30 33 35 35 37 39 40 39
5 3 6 5 2 3 4 7 15 9 5 6 16 22 25 14 13 16 17 16 16 12 11 10 10 11 10 11 12 13 14 16 19 21 21 24 26 29 32 33 34 35 37 38
4 5 5 13 15 14 13 14 15 22 22 10 20 17 23 14 14 21 19 17 15 13 12 11 10 11 11 10 10 11 12 15 17 18 20 22 23 24 26 31 33 33 32 33
3 2 1 5 10 12 15 19 21 25 25 28 34 32 34 27 20 16 14 14 14 13 13 12 10 13 14 12 10 9 10 12 13 15 18 20 22 23 24 27 29 31 33 31
7 4 0 5 3 9 9 16 21 13 11 19 21 26 20 17 15 14 12 13 15 15 14 12 12 15 15 12 10 9 9 9 11 13 15 18 21 22 23 24 26 27 32 32
6 5 1 5 4 6 2 4 3 20 13 20 18 21 17 14 14 15 13 14 15 16 15 11 13 15 15 11 10 8 8 8 10 11 13 16 19 21 22 22 23 25 27 30
9 6 3 4 4 11 10 4 6 8 7 20 22 25 19 15 6 13 10 11 14 15 15 14 16 14 14 12 10 8 9 8 8 9 11 14 16 19 21 21 23 25 27 30
12 11 7 3 5 7 3 4 5 4 8 6 12 15 14 3 7 8 9 10 11 14 12 16 15 13 15 15 12 10 9 8 9 10 12 15 16 17 18 19 21 21 21 21
7 9 17 11 7 10 13 6 4 2 5 0 5 9 7 7 10 9 10 12 12 13 17 18 14 15 17 13 12 12 9 9 9 12 14 16 17 17 16 17 18 20 22 23
11 12 7 9 7 13 15 9 9 3 3 2 5 8 9 12 14 14 16 13 14 17 18 18 15 16 14 14 13 11 9 8 10 12 15 18 19 17 16 17 17 17 17 19
5 8 7 13 10 1 13 7 10 5 7 10 10 13 15 16 17 14 14 14 12 16 18 15 14 13 13 15 13 8 6 8 11 15 19 20 18 17 14 15 15 15 14 14
7 6 4 1 9 18 16 15 15 17 18 19 17 17 17 18 15 14 13 10 9 13 13 13 10 7 9 11 8 6 6 8 12 17 19 18 15 14 13 13 12 13 12 13
5 10 9 17 19 21 19 20 20 20 18 16 17 17 16 15 15 14 12 10 12 13 7 5 4 5 7 8 7 7 8 11 14 14 13 12 12 12 13 11 12 13 12 12
9 13 11 13 17 16 15 12 10 13 16 20 18 18 17 14 15 11 9 10 9 6 3 3 3 3 3 4 5 7 10 12 12 11 10 10 10 11 12 12 14 12 13 14
Wind_Direction
30 69 56 40 43 67 54 316 320 343 108 334 17 96 81 30 27 19 15 6 357 358 356 357 356 354 351 351 348 347 342 341 342 339 335 330 317 306 292 268 254 241 234 228
96 66 41 52 23 358 67 340 15 294 314 329 332 300 188 139 44 29 15 9 2 350 351 356 356 356 356 352 349 346 343 340 340 336 327 318 309 301 293 280 280 252 237 229
81 71 351 26 27 22 51 19 347 311 315 300 306 211 218 211 297 8 15 10 3 359 349 348 353 355 354 353 350 346 342 340 340 338 331 325 317 311 307 299 289 263 244 231
67 35 32 32 44 1 19 2 323 314 322 4 350 302 227 247 312 356 2 5 360 354 350 346 349 352 354 351 347 347 344 342 342 343 338 332 322 315 310 304 297 283 269 237
98 67 35 36 347 340 328 331 305 297 253 296 48 273 158 232 270 350 356 356 355 354 349 346 346 346 349 351 350 348 346 345 345 346 345 336 326 318 313 308 302 291 284 239
94 98 320 350 308 275 317 323 154 177 217 242 131 3 238 219 224 334 347 353 354 353 351 350 346 348 349 351 352 352 349 347 347 346 347 343 333 327 321 317 311 301 282 257
94 104 41 346 300 261 352 214 220 244 253 308 155 292 279 183 175 336 336 338 347 351 350 350 351 350 349 351 351 352 351 350 348 348 348 346 340 332 325 320 317 311 293 275
199 224 181 11 32 353 11 359 26 293 292 309 268 231 309 180 182 277 301 310 338 352 350 349 350 349 349 349 352 352 353 352 351 349 349 348 346 339 331 325 322 317 309 316
189 171 148 111 95 289 43 60 38 96 64 282 256 265 259 199 222 242 301 342 337 341 345 344 346 349 350 350 353 353 354 354 354 351 351 352 349 347 339 334 331 332 330 321
148 203 181 131 171 83 6 142 168 86 299 280 248 279 265 214 229 247 296 309 320 325 334 336 340 342 346 348 349 353 357 355 358 353 356 352 351 352 350 344 340 342 342 342
142 262 132 250 199 180 155 174 116 41 247 276 299 264 220 230 206 225 277 287 299 306 315 318 322 328 332 338 345 349 355 354 358 356 355 355 353 353 356 355 346 349 351 353
148 106 239 166 113 326 271 203 194 221 193 237 278 269 248 226 219 226 264 299 297 294 296 294 299 310 321 329 337 340 344 350 351 351 354 355 353 356 356 359 354 356 356 0
174 190 295 185 141 58 225 200 206 135 155 220 214 258 171 214 231 239 265 306 296 299 293 293 289 297 306 316 326 333 337 340 344 347 349 353 356 356 356 356 357 360 3 3
161 193 239 251 54 96 200 202 207 198 217 232 230 271 278 265 266 277 292 293 296 288 287 285 283 286 291 302 312 325 329 337 339 343 347 348 350 353 351 354 358 0 5 8
194 247 215 266 271 257 254 246 217 217 221 233 266 264 272 285 295 293 295 288 285 278 280 277 279 284 285 288 298 313 323 333 339 341 343 345 344 346 349 352 356 359 6 6
166 254 105 271 273 263 261 257 239 239 244 250 259 271 268 281 283 275 284 284 277 274 276 278 276 273 271 273 278 293 312 324 333 336 340 341 344 346 349 348 350 355 357 3
167 203 291 266 2 305 263 243 222 216 221 228 246 249 275 274 276 280 292 288 280 273 273 280 280 267 260 265 273 284 303 314 325 330 336 340 343 343 345 347 348 352 351 353
151 151 211 286 321 252 10 241 197 207 235 224 248 259 257 260 282 297 282 271 276 268 270 275 276 268 255 248 250 270 287 296 314 323 331 337 341 340 340 342 345 345 349 347
187 170 213 264 241 309 276 144 161 183 265 244 238 253 261 271 284 277 269 259 258 266 260 279 284 270 250 238 235 243 267 280 300 311 322 331 336 334 335 336 338 340 341 344
206 201 206 147 248 257 62 138 145 165 282 265 215 245 255 196 261 295 331 290 272 251 260 285 288 265 240 232 225 233 249 267 288 307 316 324 327 326 326 327 329 330 332 329
172 203 217 218 258 279 256 192 157 220 311 204 204 228 222 233 258 302 298 285 273 261 279 291 284 258 251 228 212 228 241 259 281 297 310 320 322 320 318 317 322 323 328 326
173 175 192 208 236 270 195 129 205 252 163 219 218 245 247 253 268 297 294 284 278 281 285 286 283 263 238 215 208 224 237 269 281 294 306 314 317 316 313 313 315 319 323 324
231 203 186 197 210 249 195 228 229 258 274 266 268 267 274 277 275 279 277 283 280 282 289 288 277 267 226 214 214 218 246 274 287 299 308 312 312 312 310 311 313 317 321 322
239 178 239 294 212 242 242 246 256 259 261 271 272 270 270 268 271 275 272 275 275 274 274 285 276 229 206 201 211 228 265 274 290 299 305 310 309 308 312 311 311 312 315 317
186 152 220 255 266 275 261 251 264 271 269 267 262 261 260 261 266 259 270 274 276 283 276 276 221 182 176 193 218 258 270 289 297 298 301 302 304 307 310 308 305 303 302 302
201 224 226 252 258 256 276 281 258 274 279 282 281 274 266 254 263 258 260 265 264 252 198 162 153 163 176 219 253 270 283 293 293 294 297 298 302 305 307 310 312 304 296 300